Zurück zum Katalog

CZ-6A DEB

AktivPO
NORAD 64663·DEBRIS·🇨🇳 China

Gestartet Aug 6, 2024 von Taiyuan Satellite Launch Center

Loading…

Nächste Überflüge (nächste 24 Stunden)

TLE

AktuellSource: Space-Track

Epoche: Sep 14, 2026, 10:43 UTC

1 64663U 24140AFD 26257.44656079  .00004116  00000-0  72981-3 0  9991
2 64663  89.0431 263.4447 0085836 299.7892  59.4806 14.64710278100359

Verfolge CZ-6A DEB in Echtzeit mit AllMySat

Download on the App Store